Weather History for KJYM - February, 2014

Change the Weather History Date:

Saturday, February 1, 2014

  Actual Average Record
Temperature  
Mean Temperature 30 °F -  
Max Temperature 35 °F 33 °F 61 °F (1989)
Min Temperature 24 °F 16 °F -10 °F (1971)
Degree Days  
Heating Degree Days 36    
Moisture  
Dew Point 29 °F    
Average Humidity 99    
Maximum Humidity 100    
Minimum Humidity 94    
Precipitation  
Precipitation 0.00 in - - ()
Sea Level Pressure  
Sea Level Pressure 29.91 in    
Wind  
Wind Speed 4 mph (SE)    
Max Wind Speed 13 mph    
Max Gust Speed -    
Visibility 2 miles    
Events Rain , Snow    
Averages and records for this station are not official NWS values.
T = Trace of Precipitation, MM = Missing Value Source: NWS Daily Summary

Daily Weather History Graph

Daily Weather History Graph

Search for Another Location

Airport or City:

Trip Planner

Search our weather history database for the weather conditions in past years. The results will help you decide how hot, cold, wet, or windy it might be!

Date:

Astronomy

Feb. 01, 2014 Rise Set
Actual Time 7:50 AM EST 5:53 PM EST
Civil Twilight 7:21 AM EST 6:23 PM EST
Nautical Twilight 6:48 AM EST 6:56 PM EST
Astronomical Twilight 6:15 AM EST 7:29 PM EST
Moon 8:37 AM EST (2/1) 8:31 PM EST (2/1)
Length of Visible Light 11h 01m
Length of Day
10h 02m
Waxing Crescent, 5% of the Moon is Illuminated
Feb 1
Waxing Crescent
Feb 6
First Quarter
Feb 14
Full
Feb 22
Last Quarter
Mar 1
New

Hourly Weather History & Observations

Time (EST) Temp. Windchill Dew Point Humidity Pressure Visibility Wind Dir Wind Speed Gust Speed Precip Events Conditions
12:14 AM 25.5 °F - 25.2 °F 99% 30.07 in 2.0 mi Calm Calm - N/A Snow Light Snow
12:35 AM 25.5 °F - 25.2 °F 99% 30.07 in 1.8 mi Calm Calm - N/A Snow Light Snow
12:54 AM 25.7 °F - 25.3 °F 99% 30.07 in 1.8 mi Calm Calm - N/A Snow Light Snow
1:14 AM 25.9 °F - 25.3 °F 98% 30.06 in 2.0 mi Calm Calm - N/A Snow Light Snow
1:35 AM 25.9 °F - 25.3 °F 98% 30.06 in 2.5 mi Calm Calm - N/A Snow Light Snow
1:54 AM 25.9 °F - 25.3 °F 98% 30.06 in 2.5 mi Calm Calm - N/A Snow Light Snow
2:14 AM 25.9 °F - 25.3 °F 98% 30.06 in 2.0 mi Calm Calm - N/A Snow Light Snow
2:35 AM 26.1 °F - 25.5 °F 98% 30.06 in 2.5 mi Calm Calm - N/A Snow Light Snow
2:54 AM 26.1 °F 21.9 °F 25.5 °F 98% 30.06 in 3.0 mi ESE 3.5 mph - N/A Snow Light Snow
3:15 AM 26.2 °F 22.1 °F 25.7 °F 98% 30.06 in 3.0 mi ESE 3.5 mph - N/A Snow Light Snow
3:35 AM 26.2 °F 20.7 °F 25.9 °F 99% 30.05 in 3.0 mi ESE 4.6 mph - N/A Snow Light Snow
3:54 AM 26.4 °F 19.8 °F 25.9 °F 98% 30.04 in 3.0 mi ESE 5.8 mph - N/A Snow Light Snow
4:15 AM 26.4 °F 22.4 °F 26.1 °F 99% 30.03 in 3.0 mi ESE 3.5 mph - N/A   Overcast
4:34 AM 26.6 °F 20.0 °F 26.2 °F 99% 30.03 in 3.0 mi ESE 5.8 mph - N/A   Overcast
4:54 AM 27.0 °F 21.6 °F 26.6 °F 99% 30.03 in 2.0 mi ESE 4.6 mph - N/A   Overcast
5:15 AM 27.0 °F 19.5 °F 26.8 °F 99% 30.02 in 1.8 mi ESE 6.9 mph - N/A   Overcast
5:34 AM 27.0 °F 19.5 °F 26.8 °F 99% 30.01 in 1.8 mi ESE 6.9 mph - N/A   Overcast
5:54 AM 27.0 °F 20.5 °F 27.0 °F 100% 30.00 in 1.8 mi ESE 5.8 mph - N/A   Overcast
6:15 AM 27.3 °F 19.1 °F 27.3 °F 100% 29.99 in 1.8 mi ESE 8.1 mph - N/A   Overcast
6:34 AM 27.7 °F 18.8 °F 27.7 °F 100% 29.97 in 1.8 mi ESE 9.2 mph - N/A Snow Light Snow
6:54 AM 27.7 °F 18.8 °F 27.7 °F 100% 29.96 in 1.8 mi ESE 9.2 mph - N/A   Overcast
7:14 AM 27.9 °F 19.8 °F 27.9 °F 100% 29.96 in 1.8 mi ESE 8.1 mph - N/A   Overcast
7:34 AM 27.9 °F 18.4 °F 27.9 °F 100% 29.96 in 1.5 mi ESE 10.4 mph - N/A Snow Light Snow
7:55 AM 28.0 °F 20.0 °F 28.0 °F 100% 29.96 in 1.2 mi ESE 8.1 mph - N/A Snow Light Snow
8:14 AM 28.6 °F 22.4 °F 28.6 °F 100% 29.96 in 0.5 mi ESE 5.8 mph - N/A Snow Snow
8:34 AM 28.6 °F 21.5 °F 28.4 °F 99% 29.94 in 0.5 mi ESE 6.9 mph - N/A Snow Snow
8:55 AM 28.8 °F 20.9 °F 28.6 °F 99% 29.94 in 0.5 mi ESE 8.1 mph - N/A Snow Light Snow
9:14 AM 29.1 °F 20.6 °F 28.8 °F 99% 29.93 in 0.5 mi ESE 9.2 mph - N/A Snow Light Snow
9:34 AM 29.1 °F 20.0 °F 28.8 °F 99% 29.91 in 0.5 mi ESE 10.4 mph - N/A Snow Snow
9:54 AM 29.7 °F 22.0 °F 29.1 °F 98% 29.91 in 0.5 mi ESE 8.1 mph - N/A Snow Snow
10:14 AM 29.7 °F 22.8 °F 29.1 °F 98% 29.91 in 0.5 mi ESE 6.9 mph - N/A Snow Snow
10:35 AM 29.8 °F 23.9 °F 29.5 °F 99% 29.91 in 0.5 mi ESE 5.8 mph - N/A Snow Snow
10:54 AM 30.4 °F 24.5 °F 29.8 °F 98% 29.90 in 0.8 mi ESE 5.8 mph - N/A Snow Light Snow
11:14 AM 30.7 °F 24.9 °F 30.2 °F 98% 29.90 in 1.2 mi ESE 5.8 mph - N/A Snow Light Snow
11:35 AM 30.9 °F 23.5 °F 30.6 °F 99% 29.88 in 1.0 mi ESE 8.1 mph - N/A Snow Light Snow
11:54 AM 31.6 °F 23.1 °F 31.3 °F 99% 29.84 in 1.5 mi SE 10.4 mph - N/A Snow Snow
12:15 PM 32.4 °F 25.3 °F 32.0 °F 99% 29.82 in 1.2 mi SSE 8.1 mph - N/A   Overcast
12:35 PM 33.1 °F 23.9 °F 32.9 °F 99% 29.79 in 1.5 mi SE 12.7 mph - N/A Snow Light Snow
12:54 PM 33.3 °F 26.4 °F 33.1 °F 99% 29.81 in 1.8 mi South 8.1 mph - N/A   Overcast
1:14 PM 34.0 °F 26.6 °F 33.6 °F 99% 29.78 in 1.8 mi South 9.2 mph - N/A Snow Light Snow
1:35 PM 34.0 °F 28.0 °F 33.6 °F 99% 29.78 in 1.8 mi South 6.9 mph - N/A Snow Light Snow
1:54 PM 34.0 °F 28.0 °F 34.0 °F 100% 29.78 in 1.8 mi South 6.9 mph - N/A Snow Light Snow
2:14 PM 34.2 °F 29.0 °F 34.2 °F 100% 29.77 in 1.2 mi South 5.8 mph - N/A Snow Light Snow
2:35 PM 34.3 °F 29.2 °F 34.3 °F 100% 29.77 in 1.2 mi South 5.8 mph - N/A Snow Light Snow
2:54 PM 34.9 °F 30.8 °F 34.9 °F 100% 29.76 in 1.5 mi South 4.6 mph - N/A Rain Light Rain
3:15 PM 35.1 °F 31.0 °F 34.9 °F 99% 29.77 in 2.0 mi SSW 4.6 mph - N/A Rain Rain
3:35 PM 35.2 °F 31.2 °F 35.2 °F 100% 29.77 in 1.8 mi WSW 4.6 mph - N/A Rain Rain
3:54 PM 35.2 °F 32.4 °F 35.2 °F 100% 29.78 in 1.5 mi West 3.5 mph - N/A Rain Light Rain
4:15 PM 35.1 °F - 35.1 °F 100% 29.77 in 1.0 mi Calm Calm - N/A Rain Light Rain
4:35 PM 35.2 °F - 35.2 °F 100% 29.78 in 1.2 mi Calm Calm - N/A Rain Light Rain
4:54 PM 35.2 °F 32.4 °F 35.2 °F 100% 29.78 in 1.5 mi WSW 3.5 mph - N/A Rain Light Rain
5:15 PM 35.2 °F - 35.2 °F 100% 29.79 in 1.8 mi Calm Calm - N/A Rain Light Rain
5:34 PM 35.1 °F 32.2 °F 35.1 °F 100% 29.79 in 1.2 mi West 3.5 mph - N/A Rain Light Rain
5:54 PM 34.3 °F 30.2 °F 34.3 °F 100% 29.80 in 0.8 mi WNW 4.6 mph - N/A Snow Light Snow
6:14 PM 34.2 °F 30.0 °F 34.2 °F 100% 29.80 in 1.8 mi WNW 4.6 mph - N/A Snow Light Snow
6:34 PM 33.4 °F 26.6 °F 33.4 °F 100% 29.81 in 1.5 mi NW 8.1 mph - N/A Snow Light Snow
6:55 PM 33.3 °F 27.9 °F 33.3 °F 100% 29.82 in 1.8 mi NW 5.8 mph - N/A Snow Light Snow
7:14 PM 32.4 °F 24.6 °F 32.4 °F 100% 29.84 in 1.8 mi NW 9.2 mph - N/A Snow Light Snow
7:35 PM 31.5 °F 23.5 °F 31.5 °F 100% 29.85 in 1.5 mi NW 9.2 mph - N/A Snow Light Snow
7:54 PM 30.7 °F 24.1 °F 30.7 °F 100% 29.86 in 1.2 mi NNW 6.9 mph - N/A Snow Light Snow
10:42 PM 25.2 °F 14.4 °F 23.5 °F 94% 29.92 in 7.0 mi NNW 11.5 mph - N/A   Overcast
10:48 PM 25.2 °F 16.5 °F 23.5 °F 94% 29.93 in 7.0 mi NNW 8.1 mph - N/A   Mostly Cloudy
11:15 PM 24.6 °F 15.8 °F 23.4 °F 95% 29.93 in 7.0 mi NNW 8.1 mph - N/A   Mostly Cloudy
11:34 PM 24.4 °F 13.5 °F 23.0 °F 94% 29.94 in 7.0 mi NNW 11.5 mph - N/A   Overcast
11:54 PM 24.3 °F 15.4 °F 22.8 °F 94% 29.95 in 7.0 mi NNW 8.1 mph - N/A   Overcast